Location: Unspecified
(36.9193°S, 174.7252°E)
Time: 18:35:28
(UTC+13:00)

Envisat - Pass Details

Date: 26 September 2021
Orbit: 764 x 766 km, 98.2° (Epoch: 18 October)

Event Time Altitude Azimuth Distance (km) Brightness Sun altitude
Rises 05:01:40 0° 36° (NE) 3,223 6.4 -24.9°
Reaches altitude 10° 05:04:05 10° 44° (NE) 2,305 5.7 -24.4°
Maximum altitude 05:08:43 37° 109° (ESE) 1,197 4.5 -23.6°
Drops below altitude 10° 05:13:24 10° 175° (S) 2,333 5.8 -22.7°
Sets 05:15:53 0° 183° (S) 3,268 6.5 -22.2°
